Home > Weather > St. Petersburg > Past weeks

Flag for USA Weather for the Past 2 Weeks in St. Petersburg, Florida, USA

Now
70 °F

Clear.


Feels Like: 72 °F
Forecast: 71 / 78 °F
Wind: 6 mph from Northwest

Location: Whitted Airport

Current Time: May 5, 2016 at 1:59:59 AM

Latest Report: May 5, 2016 at 12:53 AM


Visibility: 10 mi

Pressure: 29.74 "Hg

Humidity: 76%

Dew Point: 62 °F

Location of St. PetersburgLocation

Historic Weather in St. Petersburg — Graph

°F

St. Petersburg Temperature Yesterday

Maximum temperature yesterday: 79 °F (at 12:53 AM)
Minimum temperature yesterday: 69 °F (at 10:53 PM)
Average temperature yesterday: 73 °F

High & Low Weather Summary for the Past Weeks

 TemperatureHumidityPressure
High90 °F (Apr 29, 2:53 PM)97% (May 4, 9:55 AM)30.12 "Hg (May 4, 9:55 AM)
Low68 °F (Apr 20, 4:53 AM)29% (Apr 24, 3:53 PM)29.59 "Hg (May 4, 4:53 PM)
Average77 °F70%29.95 "Hg
* Reported Apr 20 12:53 AM — May 5 12:53 AM, St. Petersburg, Weather by CustomWeather, © 2016

Note: Actual official high and low records may vary slightly from our data, if they occured in-between our weather recording intervals... More about our weather records

Advertising

St. Petersburg Weather History for the Previous 24 Hours

Scroll right to see more
 ConditionsComfort  
Time TempWeatherWind HumidityBarometerVisibility
12:53 AM
Thu, May 5
70 °FClear.6 mph76%29.74 "Hg10 mi
11:53 PM
Wed, May 4
69 °FClear.6 mph73%29.73 "Hg10 mi
10:53 PM69 °FClear.6 mph73%29.72 "Hg10 mi
9:53 PM70 °FClear.7 mph73%29.71 "Hg10 mi
8:53 PM71 °FPassing clouds.10 mph76%29.70 "Hg10 mi
7:53 PM70 °FScattered clouds.7 mph97%29.67 "Hg10 mi
6:53 PM71 °FLow clouds.5 mph96%29.64 "Hg10 mi
5:55 PM71 °FHeavy rain. Fog.15 mph96%29.65 "Hg1 mi
5:02 PM71 °FLight rain. Fog.21 mph90%29.63 "Hg6 mi
4:53 PM72 °FThundershowers. Fog.26 mph91%29.59 "Hg6 mi
3:53 PM72 °FMostly cloudy.18 mph87%29.69 "Hg10 mi
2:53 PM72 °FPartly sunny.18 mph91%29.73 "Hg10 mi
1:53 PM70 °FLight rain. Cloudy.17 mph93%29.78 "Hg8 mi
12:53 PM71 °FRain. Fog.9 mph93%29.82 "Hg4 mi
11:52 AM72 °FLight rain. Fog.No wind87%29.82 "Hg5 mi
10:53 AM71 °FMostly cloudy.6 mph90%29.82 "Hg10 mi
9:55 AM70 °FLight rain. Fog.7 mph97%29.85 "Hg1 mi
9:00 AM71 °FThundershowers. Fog.7 mph93%29.83 "Hg4 mi
8:02 AM70 °FStrong thunderstorms. Fog.14 mph93%29.83 "Hg1 mi
7:53 AM70 °FStrong thunderstorms. Fog.8 mph93%29.83 "Hg1 mi
7:02 AM70 °FStrong thunderstorms. Fog.6 mph87%29.80 "Hg3 mi
6:57 AM70 °FStrong thunderstorms. Fog.16 mph87%29.81 "Hg1 mi
6:04 AM78 °FThundershowers. Mostly cloudy.10 mph84%29.77 "Hg10 mi
5:53 AM79 °FLight rain. Mostly cloudy.9 mph82%29.78 "Hg10 mi
4:53 AM78 °FPassing clouds.No wind82%29.79 "Hg10 mi
3:53 AM78 °FPassing clouds.8 mph82%29.80 "Hg10 mi
2:53 AM78 °FClear.7 mph82%29.83 "Hg10 mi
1:53 AM78 °FClear.5 mph82%29.85 "Hg10 mi
Weather by CustomWeather, © 2016

See weather overviewHow to use our weather pages